カタログに戻る

STARLINK-32193

運用中通信VLEO
NORAD 60428·PAYLOAD·🇺🇸 United States

打ち上げ Aug 12, 2024 から Cape Canaveral Space Force Station

Loading…

次のパス (今後24時間)

TLE

最新Source: CelesTrak SupGP

元期: Sep 14, 2026, 21:22 UTC

1 60428C 24144D   26257.89076389  .00040080  00000+0  11845-2 0  2576
2 60428  53.1595  55.7487 0001251  82.7231 249.9840 15.34360490    10

AllMySatでSTARLINK-32193をリアルタイム追跡

Download on the App Store